Weather History for Safford, AZ

Change the Weather History Date:

Saturday, March 16, 2013

  Actual Average Record
Temperature  
Mean Temperature 65 °F -  
Max Temperature 82 °F 70 °F 86 °F (2007)
Min Temperature 48 °F 35 °F 21 °F (1956)
Growing Degree Days 15 (Base 50)    
Moisture  
Dew Point 17 °F    
Average Humidity 16    
Maximum Humidity 28    
Minimum Humidity 7    
Precipitation  
Precipitation 0.00 in - - ()
Sea Level Pressure  
Sea Level Pressure 29.76 in    
Wind  
Wind Speed 6 mph (NW)    
Max Wind Speed 18 mph    
Max Gust Speed 31 mph    
Visibility 10 miles    
Events      
Averages and records for this station are not official NWS values.
T = Trace of Precipitation, MM = Missing Value Source: NWS Daily Summary

Daily Weather History Graph

Daily Weather History Graph

Search for Another Location

Airport:

Trip Planner

Search our weather history database for the weather conditions in past years. The results will help you decide how hot, cold, wet, or windy it might be!

Date:

Astronomy

Mar. 16, 2013 Rise Set
Actual Time 6:27 AM MST 6:27 PM MST
Civil Twilight 6:02 AM MST 6:52 PM MST
Nautical Twilight 5:33 AM MST 7:20 PM MST
Astronomical Twilight 5:05 AM MST 7:49 PM MST
Moon 9:15 AM MST (3/16) 11:22 PM MST (3/16)
Length of Visible Light 12h 49m
Length of Day
12h 00m
Waxing Crescent, 24% of the Moon is Illuminated
Mar 16
Waxing Crescent
Mar 19
First Quarter
Mar 27
Full
Apr 2
Last Quarter
Apr 10
New

Hourly Weather History & Observations

Time (MST) Temp. Dew Point Humidity Pressure Visibility Wind Dir Wind Speed Gust Speed Precip Events Conditions
12:51 AM 60.1 °F 17.1 °F 19% 29.83 in 10.0 mi SSE 4.6 mph - N/A   Clear
1:51 AM 55.9 °F 14.0 °F 19% 29.82 in 10.0 mi East 4.6 mph - N/A   Clear
2:51 AM 54.0 °F 14.0 °F 21% 29.82 in 10.0 mi SSE 3.5 mph - N/A   Clear
3:51 AM 50.0 °F 12.9 °F 23% 29.81 in 10.0 mi ESE 3.5 mph - N/A   Clear
4:51 AM 51.1 °F 15.1 °F 24% 29.81 in 10.0 mi SE 3.5 mph - N/A   Clear
5:51 AM 50.0 °F 16.0 °F 26% 29.83 in 10.0 mi East 4.6 mph - N/A   Clear
6:51 AM 48.9 °F 17.1 °F 28% 29.84 in 10.0 mi ESE 3.5 mph - N/A   Clear
7:51 AM 55.9 °F 19.0 °F 24% 29.85 in 10.0 mi SE 3.5 mph - N/A   Clear
8:51 AM 64.0 °F 19.0 °F 18% 29.84 in 10.0 mi Calm Calm - N/A   Clear
9:51 AM 71.1 °F 19.9 °F 14% 29.84 in 10.0 mi Variable 3.5 mph - N/A   Clear
10:51 AM 75.0 °F 19.0 °F 12% 29.81 in 10.0 mi Calm Calm - N/A   Clear
11:51 AM 79.0 °F 19.0 °F 11% 29.78 in 10.0 mi West 6.9 mph - N/A   Clear
12:51 PM 80.1 °F 19.0 °F 10% 29.75 in 10.0 mi WNW 11.5 mph 17.3 mph N/A   Clear
1:51 PM 82.0 °F 19.9 °F 10% 29.73 in 10.0 mi West 12.7 mph 18.4 mph N/A   Clear
2:51 PM 82.9 °F 19.0 °F 9% 29.68 in 10.0 mi NW 16.1 mph 21.9 mph N/A   Clear
3:51 PM 82.9 °F 17.1 °F 9% 29.67 in 10.0 mi NW 13.8 mph 25.3 mph N/A   Clear
4:51 PM 82.9 °F 12.0 °F 7% 29.64 in 10.0 mi NW 18.4 mph 31.1 mph N/A   Clear
5:51 PM 81.0 °F 10.9 °F 7% 29.65 in 10.0 mi WNW 18.4 mph 27.6 mph N/A   Clear
6:51 PM 75.0 °F 16.0 °F 11% 29.68 in 10.0 mi NW 12.7 mph - N/A   Clear
7:51 PM 73.0 °F 17.1 °F 12% 29.70 in 10.0 mi NW 13.8 mph - N/A   Clear
8:51 PM 70.0 °F 19.0 °F 14% 29.72 in 10.0 mi NNW 9.2 mph - N/A   Clear
9:51 PM 63.0 °F 19.9 °F 19% 29.73 in 10.0 mi WNW 8.1 mph - N/A   Clear
10:51 PM 62.1 °F 19.9 °F 20% 29.74 in 10.0 mi NW 12.7 mph - N/A   Clear
11:51 PM 59.0 °F 21.0 °F 23% 29.74 in 10.0 mi NW 3.5 mph - N/A   Clear